Location: Hanover
(52.3667°N, 9.7167°E)
Time: 05:15:26
(UTC+02:00)

Envisat - Pass Details

Date: 29 September 2024
Orbit: 762 x 764 km, 98.3° (Epoch: 04 October)

Event Time Altitude Azimuth Distance (km) Brightness Sun altitude
Rises 05:34:42 0° 10° (N) 3,240 6.6 -16.6°
Reaches altitude 10° 05:37:07 10° 3° (N) 2,309 5.7 -16.2°
Maximum altitude 05:41:49 40° 296° (WNW) 1,127 3.5 -15.6°
Enters shadow 05:44:23 23° 242° (WSW) 1,573 4.0 -15.2°
